Regional Weather Roundup
Issued by NWS

Home | Current Version | Previous Version | Text Only | Print | Product List | Glossary On
Versions: 1 2 3 4 5 6 7 8 9 10 11 12 13 14 15 16 17 18 19 20 21 22 23 24 25 26 27 28 29 30 31 32 33 34 35 36 37 38 39 40 41 42 43 44 45 46 47 48 49 50
000
ASUS43 KDTX 060701
RWRMI
MICHIGAN HOURLY REGIONAL WEATHER ROUNDUP
NATIONAL WEATHER SERVICE DETROIT/PONTIAC MI
300 AM EDT WED MAY 06 2015

NOTE: "FAIR" INDICATES FEW OR NO CLOUDS BELOW 12,000 FEET WITH NO
SIGNIFICANT WEATHER AND/OR OBSTRUCTION TO VISIBILITY.

MIZ047>049-052>055-059>063-066>070-074>076-081>083-060800-
SOUTHEAST LOWER MICHIGAN

CITY           SKY/WX    TMP DP  RH WIND       PRES   REMARKS
ADRIAN         CLOUDY    51  51 100 SE7       30.24F FOG
ALMA           MOCLDY    48  47  96 CALM      30.26F
ANN ARBOR      HVY RAIN  51  50  96 SE5       30.25S FOG
BAD AXE        PTCLDY    38  37  94 CALM      30.28F
CARO           PTCLDY    42  41  99 CALM      30.27S FOG
DETROIT CITY   CLOUDY    50  48  93 CALM      30.27F
DETROIT        RAIN      52  50  93 E3        30.25F FOG
FLINT          CLOUDY    52  46  80 SE3       30.27S
GROSSE ILE     RAIN      52  48  87 CALM      30.24F
HILLSDALE      FOG       52  52 100 SE7       30.23F VSB 1
HOWELL         CLOUDY    51  51  98 NE5       30.25F FOG

CITY           SKY/WX    TMP DP  RH WIND       PRES   REMARKS
JACKSON        CLOUDY    51  50  96 SE7       30.23F
LAMBERTVILLE   CLOUDY    52  50  93 CALM      30.24F FOG
LANSING        CLOUDY    52  50  93 E5        30.25F
LAPEER         NOT AVBL
MASON          CLOUDY    51  50  95 E3        30.25S FOG
MONROE         RAIN      52  52 100 E3        30.23F
PONTIAC        CLOUDY    50  45  83 CALM      30.26S
PORT HOPE        N/A     41  37  86 E7        30.28S
PORT HURON     MOCLDY    41  41 100 CALM      30.27F
TRI CITIES     PTCLDY    48  45  89 NE6       30.27F FOG
MIDLAND        FAIR      44  43  96 CALM      30.26F
TROY           CLOUDY    51  48  87 CALM      30.28S
SAGINAW HB     FOG       45  45 100 CALM      30.26F VSB 1/4
$$
MIZ043>046-050>051-056>058-064>065-071>073-077>080-060800-
SOUTHWEST LOWER MICHIGAN

CITY           SKY/WX    TMP DP  RH WIND       PRES   REMARKS
BATTLE CREEK   CLOUDY    52  50  93 E6        30.23F FOG
BENTON HARBOR  CLOUDY    52  51  97 E9        30.20F FOG
BIG RAPIDS     MOCLDY    50  44  78 S5        30.26S
COLDWATER      CLOUDY    51  51  99 SE6       30.22F FOG
FREMONT        CLOUDY    52  44  76 E5        30.24F
HOLLAND        CLOUDY    53  50  89 E6        30.23F
GRAND RAPIDS   CLOUDY    53  49  86 E8        30.24F
IONIA          CLOUDY    53  49  86 E6        30.24F
KALAMAZOO      CLOUDY    52  49  89 E5        30.22F FOG
LUDINGTON      CLOUDY    51  45  81 CALM      30.25F
MARSHALL       CLOUDY    50  49  98 CALM      30.23F FOG
MOUNT PLEASANT MOCLDY    48  44  85 CALM      30.26F
MUSKEGON       CLOUDY    54  46  74 E7        30.23F
SOUTH HAVEN    MOCLDY    52  51  95 E5        30.22S FOG
$$
MIZ016>042-060800-
NORTHERN LOWER MICHIGAN

CITY           SKY/WX    TMP DP  RH WIND       PRES   REMARKS
ALPENA         CLEAR     35  33  92 CALM      30.29F
BEAVER ISLAND  CLEAR     40  33  77 E5        30.27F
BELLAIRE       PTCLDY    41  38  87 CALM      30.28S
CADILLAC       MOCLDY    42  32  67 CALM      30.25F
CHARLEVOIX     CLEAR     44  33  65 SE6       30.30S
FRANKFORT      MOCLDY    47  32  56 CALM      30.25F
GAYLORD        PTCLDY    45  37  73 CALM      30.28F
GRAYLING       PTCLDY    37  33  86 CALM      30.28F
HARBOR SPRINGS CLEAR     43  32  65 NE5       30.27F
HOUGHTON LAKE  MOCLDY    39  36  89 CALM      30.28F
MANISTEE       CLOUDY    46  39  76 E5        30.26F
OSCODA         CLOUDY    31  30  94 CALM      30.29S
PELLSTON       CLEAR     35  28  75 CALM      30.28F
ROGERS CITY    CLEAR     38  35  91 S3        30.30S
TRAVERSE CITY  PTCLDY    42  35  76 CALM      30.25F
$$
MIZ007>008-015-060800-
EASTERN UPPER MICHIGAN

CITY           SKY/WX    TMP DP  RH WIND       PRES   REMARKS
KINROSS        CLEAR     45  30  57 CALM      30.28S
MACKINAC ISLAN CLEAR     51  38  59 SE9       30.27F
NEWBERRY       CLEAR     48  27  45 CALM      30.26F
S. S. MARIE    CLEAR     44  32  62 CALM      30.28S
MUNISING         N/A     41  32  70 S6        30.24F
$$
MIZ004>006-011>014-085-060800-
CENTRAL UPPER MICHIGAN

CITY           SKY/WX    TMP DP  RH WIND       PRES   REMARKS
MANISTIQUE     CLEAR     36  31  82 CALM      30.26F
ESCANABA       PTCLDY    36  32  87 CALM      30.24F
MENOMINEE      CLOUDY    48  37  66 NE3       30.24F
SAWYER-GWINN   CLEAR     37  27  69 CALM      30.25S
$$
MIZ001>003-009>011-084-060800-
WESTERN UPPER MICHIGAN

CITY           SKY/WX    TMP DP  RH WIND       PRES   REMARKS
IRON MOUNTAIN  PTCLDY    39  31  72 CALM      30.24F
HOUGHTON       CLEAR     49  28  44 S6        30.21F
COPPER HARBOR    N/A     50  29  44 SW12      30.20F
IRONWOOD       PTCLDY    55  25  30 E3        30.17S
$$

ABBREVIATIONS USED IN REMARKS
   TC - TEMPERATURE IN CELSIUS
  WCI - WIND CHILL INDEX
   HX - HEAT INDEX
  VSB - VISIBILITY




USA.gov is the U.S. government's official web portal to all federal, state and local government web resources and services.